Location: Bussy-Saint-Georges
(48.8410°N, 2.7017°E)
Time: 03:00:09
(UTC+00:00)

CENTAUR R/B - Pass Details

Date: 18 October 2021
Orbit: 728 x 1459 km, 63.4° (Epoch: 26 November)

Event Time Altitude Azimuth Distance (km) Brightness Sun altitude
Rises 20:58:10 0° 313° (NW) 3,990 6.6 -39.3°
Reaches altitude 10° 21:00:54 10° 321° (NW) 3,131 5.8 -39.7°
Enters shadow 21:06:33 40° 3° (N) 1,844 4.0 -40.4°
